{"data":{"norad_id":48107,"intl_designator":"2021-027R","name":"STARLINK-2443","alt_names":[],"object_type":"PAYLOAD","status":"ACTIVE","operator":null,"country":"US","launch_date":"2021-04-07","launch_site_code":"AFETR","launch_vehicle":null,"mission":null,"orbit_class":"UNKNOWN","rcs_meters":null,"size_class":null,"mass_kg":null,"dimensions":null,"purposes":["comms"],"wikipedia_slug":null,"has_3d_model":false,"image_url":null,"decayed_at":null,"tle_current":{"epoch":"2026-05-25T00:46:30.669888Z","epoch_age_seconds":65637,"freshness":"FRESH","line1":"1 48107U 21027R   26145.03229942  .00002140  00000+0  80694-4 0  9998","line2":"2 48107  53.1592 157.7143 0002045  84.6730 275.4504 15.31708550284370","mean_motion":15.3170855,"eccentricity":0.0002045,"inclination_deg":53.1592,"raan_deg":157.7143,"arg_perigee_deg":84.673,"mean_anomaly_deg":275.4504,"bstar":8.0694e-5,"rev_number":28437,"period_min":94.012663179297,"perigee_km":469.31391810568,"apogee_km":472.11509837255,"semimajor_km":6848.8515082391,"source":"CELESTRAK","updated_at":"2026-05-25T13:38:16.643898Z"}}}